Location: Newark
(21.1200°N, 73.4000°E)
Time: 06:16:51
(UTC+00:00)

Explorer 11/Cluster Stage 4 - Pass Details

Date: 28 January 2020
Orbit: 467 x 1259 km, 28.8° (Epoch: 17 February)

Event Time Altitude Azimuth Distance (km) Brightness Sun altitude
Rises 04:14:48 0° 209° (SSW) 3,564 10.1 30.0°
Reaches altitude 10° 04:17:50 10° 195° (SSW) 2,756 9.8 30.6°
Maximum altitude 04:23:06 23° 145° (SE) 2,135 10.7 31.6°
Drops below altitude 10° 04:28:59 10° 96° (E) 3,127 10.6 32.6°
Sets 04:32:39 0° 83° (E) 4,159 10.8 33.3°
